OBJECT H, 64883

Orbit data source: Space-Track

You're viewing an Uncataloged Satellite

Recently launched and/or uncataloged satellites may have evolving metadata. Metadata may include but not limited to: Owner, Maufacturer, Bus, Motor, and Mission.

OBJECT H, 64883 is a satellite in SSO that was launched on Fri, 25 Jul 2025 UTC via a SOYUZ-2-1B launch vehicle from the Vostochny Cosmodrome (VOSTO). Unknown objects in Earth's orbit typically refer to objects detected orbiting the Earth but have not yet been identified or cataloged. These objects could be anything from previously untracked satellites, spent rocket stages, debris from satellite collisions, or even natural meteoroids temporarily captured by Earth's gravity.

Loading next visibility...
Identifier
64883, 2025-155H
Orbit
SSO
Country
Flag of TBDTBD
Related business
None
Manufacturer
STTs
Mission
Operational spacecraft
Bus & Motor
CUBESAT 3U, Unknown motor
Mass
3 kg wet, 3 kg dry
Launch date (UTC)
2025-07-25 (1 month ago)
Launch vehicle
SOYUZ-2-1B
Launch site
Vostochny Cosmodrome (VOSTO)
Object type
Unknown
Shape & HBR
Unknown
Radar Cross Section
Small (<0.1 m²)

Expand to show TLE details & history
Last TLE update: 8 hours ago

TLE from 8 hours ago
0 OBJECT H
1 64883U 25155H   25242.92375985  .00013681  00000-0  59266-3 0  9990
2 64883  97.4176 207.6673 0010300 117.4106 242.8180 15.22465905 36485
Epoch: 2025-08-30T22:10Z
TLE epoch observation values (Epoch: 2025-08-30T22:10:12.851Z)
Latitude
0.00006°
Longitude
-104.23734°
Altitude
504.741 km
Speed
7.61 km/s
True Right ascension
13h 50m 40s
True Declination
0° 00' 00"
Sunlit
Object was in daylight at epoch
Visualization orbit readout
Latitude
Unknown
Longitude
Unknown
Altitude
Unknown
Speed
Unknown
Apparent Right ascension
Unknown
Apparent Declination
Unknown
Sunlit
N/A
Visualization observer readout
Local Sidereal Time
21:42:13
Azimuth
Unknown
Elevation
Unknown
Doppler factor
Unknown
Orbital elements
Apogee altitude
502.448 km
Perigee altitude
488.289 km
Semi-major axis
6,873.505 km
Eccentricity
0.00103
Inclination
97.4176°
RAAN
207.6673°
Arg. of periapsis
117.4106°
True anomaly
242.71307°
Mean anomaly
242.818°
Eccentric anomaly
242.76553°
Mean motion
3.80869 °/min
Orbital period
94.52 mins
BSTAR
0.00059266
Loading maneuver chart data...
Computing Atmospheric mass density...
Loading historical data...
Loading historical data...
Loading historical data...
Loading historical data...
Loading historical data...
Loading historical data...
Loading historical data...

Documentation

Showing up to 5 results
|